GW2225 Weather Reports


time (UTC)temp
C
wind
direction
speed
KPH
gust
KPH
rain 1hr
cm
rain 24hr
cm
rain mn
cm
humidity
%
barometer
mb
20260906090007 20 262 0.0 0.0 0.00 1.50 0.00 98 1011.1
20260906084511 20 262 0.0 0.0 0.00 1.50 0.00 97 1010.9
20260906083055 20 262 0.0 0.0 0.00 1.50 0.00 97 1011.2
20260906081528 20 262 0.0 0.0 0.00 1.50 0.00 97 1011.3
20260906080026 20 262 0.0 0.0 0.00 1.50 0.00 97 1011.3
20260906074526 20 262 0.0 0.0 0.00 1.50 0.00 97 1011.4
20260906073027 20 262 0.0 0.0 0.00 1.50 0.00 97 1011.3
20260906071521 20 262 0.0 0.0 0.00 1.50 0.00 97 1011.3
20260906070020 21 262 0.0 0.0 0.00 1.50 0.00 97 1011.4
20260906064527 21 262 0.0 0.0 0.00 1.50 0.00 97 1011.4
20260906063017 21 262 0.0 0.0 0.00 1.50 0.00 97 1011.6
20260906061515 21 262 0.0 0.0 0.00 1.50 0.00 96 1011.8
20260906060021 21 262 0.0 0.0 0.00 1.50 0.00 96 1011.8
20260906054511 21 262 0.0 0.0 0.00 1.50 0.00 96 1012.0
20260906053019 21 262 0.0 0.0 0.00 1.50 0.00 96 1012.1
20260906051510 21 262 0.0 0.0 0.00 1.50 0.00 95 1012.0
20260906050008 21 262 0.0 0.0 0.00 1.50 0.00 95 1012.4
20260906044506 21 262 0.0 0.0 0.00 1.50 0.00 95 1012.3
20260906043056 21 257 0.0 0.0 0.00 1.50 0.00 95 1011.9
20260906041515 22 257 0.0 0.0 0.00 1.50 0.00 95 1011.9
20260906040012 22 257 0.0 0.0 0.00 1.50 0.00 95 1011.9
20260906034516 22 257 0.0 0.0 0.00 1.50 1.50 95 1012.0
20260906033016 22 257 0.0 0.0 0.00 1.50 1.50 95 1012.3
20260906031510 22 257 0.0 0.0 0.00 1.50 1.50 94 1012.4
20260906030009 22 257 0.0 0.0 0.00 1.50 1.50 94 1012.7
20260906024509 22 257 0.0 0.0 0.00 1.50 1.50 94 1012.3
20260906023009 22 257 0.0 0.0 0.00 1.50 1.50 94 1012.4
20260906021513 22 257 0.0 0.0 0.00 1.50 1.50 94 1012.4
20260906020009 22 257 0.0 0.0 0.00 1.50 1.50 93 1012.3
20260906014517 22 257 0.0 0.0 0.00 1.50 1.50 93 1012.0
20260906013006 22 257 0.0 0.0 0.00 1.50 1.50 93 1012.0
20260906011505 22 257 0.0 0.0 0.00 1.50 1.50 92 1011.8
20260906010004 23 257 0.0 0.0 0.00 1.50 1.50 91 1011.8
20260906004504 23 257 0.0 0.0 0.00 1.50 1.50 90 1011.5
20260906003055 23 257 0.0 0.0 0.00 1.50 1.50 90 1011.3
20260906001512 23 257 0.0 0.0 0.00 1.50 1.50 89 1011.2
20260906000012 24 257 0.0 0.0 0.00 1.50 1.50 87 1011.2
20260905234512 25 257 0.0 0.0 0.00 1.50 1.50 86 1011.2
20260905233010 25 257 0.0 0.0 0.00 1.50 1.50 86 1011.1
20260905231510 26 257 0.0 0.0 0.00 1.50 1.50 85 1011.0
20260905230009 26 257 0.0 0.0 0.00 1.50 1.50 84 1011.2
20260905224516 27 257 0.0 0.0 0.00 1.50 1.50 82 1011.3
20260905223008 27 257 0.0 0.0 0.00 1.50 1.50 80 1011.4
20260905221517 27 257 0.0 0.0 0.00 1.50 1.50 79 1011.6
20260905220007 27 257 0.0 0.0 0.00 1.50 1.50 79 1011.4
20260905214506 27 255 0.0 4.8 0.00 1.50 1.50 78 1011.4
20260905213005 28 165 0.0 0.0 0.00 1.50 1.50 78 1011.4
20260905211504 28 183 0.0 3.2 0.00 1.50 1.50 77 1011.2
20260905210003 28 168 0.0 3.2 0.00 1.50 1.50 75 1011.4
20260905204502 28 90 0.0 9.7 0.00 1.50 1.50 74 1011.3
20260905203002 29 195 0.0 4.8 0.00 1.50 1.50 76 1011.5
20260905201609 28 150 0.0 3.2 0.00 1.50 1.50 77 1011.5
20260905194557 28 203 0.0 4.8 0.00 1.50 1.50 81 1011.8
20260905193055 27 174 0.0 6.4 0.00 1.50 1.50 78 1012.2
20260905191557 27 120 0.0 1.6 0.00 1.50 1.50 81 1012.3
20260905190105 26 261 1.6 4.8 0.00 1.50 1.50 82 1012.6
20260905184606 26 104 0.0 4.8 0.00 1.50 1.50 84 1013.0
20260905183049 26 155 0.0 4.8 0.00 1.50 1.50 84 1013.2
20260905181550 25 200 0.0 3.2 0.00 1.50 1.50 87 1013.5
20260905180048 23 210 0.0 1.6 0.00 1.50 1.50 90 1013.7
20260905174555 23 174 1.6 4.8 0.00 1.50 1.50 94 1014.3
20260905173046 22 138 1.6 4.8 0.00 1.50 1.50 97 1014.8
20260905171547 21 146 0.0 0.0 0.00 1.50 1.50 96 1014.8
20260905170045 21 146 0.0 0.0 0.71 1.50 1.50 96 1014.7
20260905164549 21 146 0.0 0.0 1.50 1.50 1.50 95 1014.3
20260905163044 21 148 0.0 1.6 1.50 1.50 1.50 94 1014.6
20260905161543 22 146 0.0 3.2 1.50 1.50 1.50 92 1014.7
20260905160043 25 78 0.0 12.9 0.76 0.76 0.76 85 1016.0
20260905154539 28 11 1.6 3.2 0.00 0.00 0.00 79 1014.6
20260905153039 30 3 0.0 1.6 0.00 0.00 0.00 76 1014.1
20260905151537 29 249 0.0 1.6 0.00 0.00 0.00 79 1013.9
20260905150035 28 258 0.0 1.6 0.00 0.00 0.00 78 1013.7
20260905144535 28 231 0.0 1.6 0.00 0.00 0.00 81 1013.7
20260905143031 27 257 0.0 1.6 0.00 0.00 0.00 83 1013.6
20260905141522 26 167 0.0 0.0 0.00 0.00 0.00 85 1013.8
20260905140018 25 186 0.0 0.0 0.00 0.00 0.00 89 1014.0
20260905134518 24 189 0.0 0.0 0.00 0.00 0.00 92 1014.1
20260905133016 23 178 0.0 0.0 0.00 0.00 0.00 94 1014.0
20260905131516 22 178 0.0 0.0 0.00 0.00 0.00 96 1014.1
20260905130006 22 43 0.0 0.0 0.00 0.00 0.00 97 1014.3
20260905124505 21 43 0.0 0.0 0.00 0.00 0.00 98 1014.3
20260905123108 21 43 0.0 0.0 0.00 0.00 0.00 98 1014.3
20260905121527 21 43 0.0 0.0 0.00 0.00 0.00 98 1014.2
20260905120021 20 43 0.0 0.0 0.00 0.00 0.00 98 1014.0
20260905114534 20 43 0.0 0.0 0.00 0.00 0.00 97 1014.0
20260905113016 20 43 0.0 0.0 0.00 0.00 0.00 97 1013.8
20260905111517 20 43 0.0 0.0 0.00 0.00 0.00 97 1013.7
20260905110015 20 43 0.0 0.0 0.00 0.00 0.00 97 1013.6
20260905104514 20 43 0.0 0.0 0.00 0.00 0.00 97 1013.2
20260905103024 20 43 0.0 0.0 0.00 0.00 0.00 97 1013.4
20260905101523 20 43 0.0 0.0 0.00 0.00 0.00 97 1013.1
20260905100013 20 43 0.0 0.0 0.00 0.00 0.00 97 1013.2
20260905094510 20 43 0.0 0.0 0.00 0.00 0.00 97 1013.2
20260905093009 21 43 0.0 0.0 0.00 0.00 0.00 97 1013.1
20260905091508 21 43 0.0 0.0 0.00 0.00 0.00 97 1012.9